{"data":{"norad_id":63042,"intl_designator":"2025-034P","name":"STARLINK-32795","alt_names":[],"object_type":"PAYLOAD","status":"ACTIVE","operator":null,"country":"US","launch_date":"2025-02-18","launch_site_code":"AFETR","launch_vehicle":null,"mission":null,"orbit_class":"UNKNOWN","rcs_meters":null,"size_class":null,"mass_kg":null,"dimensions":null,"purposes":["comms"],"wikipedia_slug":null,"has_3d_model":false,"image_url":null,"decayed_at":null,"tle_current":{"epoch":"2026-09-21T22:00:03.000096Z","epoch_age_seconds":43534,"freshness":"FRESH","line1":"1 63042U 25034P   26264.91670139  .00049288  00000+0  14618-2 0  9997","line2":"2 63042  53.1580  62.8552 0001208  79.9643 286.9641 15.34367830  5883","mean_motion":15.3436783,"eccentricity":0.0001208,"inclination_deg":53.158,"raan_deg":62.8552,"arg_perigee_deg":79.9643,"mean_anomaly_deg":286.9641,"bstar":0.0014618,"rev_number":588,"period_min":93.849725720592,"perigee_km":461.97247284558,"apogee_km":463.62524294885,"semimajor_km":6840.9358578972,"source":"CELESTRAK","updated_at":"2026-09-22T09:00:49.746541Z"}}}